Location: Unnamed
(48.2382°N, 16.3826°E)
Time: 10:11:25
(UTC+02:00)

Falcon 9 debris - Pass Details

Date: 23 August 2020
Orbit: 426 x 434 km, 53.0° (Epoch: 23 September)

Event Time Altitude Azimuth Distance (km) Brightness Sun altitude
Rises 20:42:49 0° 295° (WNW) 2,411 ? -8.5°
Reaches altitude 10° 20:44:57 10° 299° (WNW) 1,542 ? -8.8°
Maximum altitude 20:48:23 63° 21° (NNE) 491 ? -9.3°
Enters shadow 20:51:20 13° 102° (ESE) 1,348 ? -9.8°
